EW6800 Weather Reports


time (UTC)temp
F
wind
direction
speed
knots
gust
knots
rain 1hr
in
rain 24hr
in
rain mn
in
humidity
%
barometer
mb
20260905032043 56 310 2.6 4.3 0.00 0.06 0.01 76 1015.1
20260905031554 56 320 2.6 4.3 0.00 0.06 0.01 75 1015.1
20260905031044 56 307 1.7 4.3 0.00 0.06 0.01 74 1015.1
20260905030543 56 311 1.7 6.1 0.00 0.06 0.01 72 1015.0
20260905025543 57 311 2.6 7.0 0.00 0.06 0.01 70 1015.0
20260905025043 57 303 3.5 6.1 0.00 0.06 0.01 70 1015.1
20260905024555 57 309 3.5 7.0 0.00 0.06 0.01 71 1015.0
20260905024118 57 309 2.6 7.0 0.00 0.06 0.01 72 1015.0
20260905023543 58 313 2.6 7.0 0.00 0.06 0.01 71 1015.0
20260905023101 58 309 4.3 7.0 0.00 0.06 0.01 69 1015.0
20260905022543 58 315 2.6 7.0 0.00 0.06 0.01 68 1015.0
20260905022043 59 307 1.7 6.1 0.00 0.06 0.01 67 1015.0
20260905021557 59 299 1.7 7.8 0.00 0.06 0.01 65 1014.9
20260905021044 59 293 2.6 7.8 0.00 0.06 0.01 64 1014.9
20260905020543 60 324 3.5 7.0 0.00 0.06 0.01 63 1014.8
20260905020105 60 331 4.3 7.0 0.00 0.06 0.01 62 1014.8
20260905015543 60 309 2.6 6.1 0.00 0.06 0.01 61 1014.9
20260905015046 61 302 3.5 6.1 0.00 0.06 0.01 60 1014.7
20260905014604 61 296 2.6 7.0 0.00 0.06 0.01 59 1014.8
20260905014047 61 302 3.5 8.7 0.00 0.06 0.01 58 1014.8
20260905013544 61 306 4.3 8.7 0.00 0.06 0.01 58 1014.7
20260905013059 62 300 5.2 8.7 0.00 0.06 0.01 57 1014.8
20260905012544 62 296 5.2 8.7 0.00 0.06 0.01 56 1014.8
20260905012044 62 317 4.3 7.8 0.00 0.06 0.01 55 1014.9
20260905011559 63 297 3.5 7.0 0.00 0.06 0.01 53 1014.8
20260905011043 63 300 4.3 7.0 0.00 0.06 0.01 53 1014.9
20260905010544 63 300 4.3 7.0 0.00 0.06 0.01 52 1014.9
20260905010100 63 301 3.5 7.0 0.00 0.06 0.01 53 1014.9
20260905005544 63 319 3.5 7.8 0.00 0.06 0.01 52 1014.8
20260905005044 63 308 4.3 7.8 0.00 0.06 0.01 51 1014.9
20260905004610 64 302 3.5 7.0 0.00 0.06 0.01 52 1014.8
20260905004040 64 304 3.5 7.0 0.00 0.06 0.01 53 1014.8
20260905003544 64 306 3.5 7.0 0.00 0.06 0.01 53 1014.9
20260905003051 64 304 3.5 7.0 0.00 0.06 0.01 52 1015.0
20260905002543 65 304 3.5 7.0 0.00 0.06 0.01 53 1014.9
20260905002046 65 304 3.5 7.0 0.00 0.06 0.01 53 1014.9
20260905001608 65 295 2.6 7.0 0.00 0.06 0.01 54 1014.9
20260905001046 65 307 2.6 7.0 0.00 0.06 0.01 54 1014.8
20260905000545 65 298 1.7 7.0 0.00 0.06 0.01 53 1014.9
20260905000109 65 307 2.6 7.8 0.00 0.06 0.01 53 1014.9
20260904235544 65 304 3.5 7.8 0.00 0.06 0.01 53 1014.9
20260904235043 65 301 2.6 7.8 0.00 0.06 0.01 52 1014.8
20260904234607 65 311 4.3 7.8 0.00 0.06 0.01 53 1014.9
20260904234048 65 298 4.3 8.7 0.00 0.06 0.01 53 1014.9
20260904233546 65 315 6.1 8.7 0.00 0.06 0.01 53 1014.9
20260904233106 66 308 4.3 7.8 0.00 0.06 0.01 53 1014.9
20260904232544 66 297 3.5 7.8 0.00 0.06 0.01 52 1014.9
20260904232046 66 315 3.5 7.8 0.00 0.06 0.01 51 1015.0
20260904231607 67 310 2.6 7.8 0.00 0.06 0.01 50 1014.9
20260904231043 67 312 2.6 7.0 0.00 0.06 0.01 51 1014.9
20260904230545 67 311 2.6 7.0 0.00 0.06 0.01 51 1015.0
20260904230058 67 309 1.7 7.0 0.00 0.06 0.01 51 1015.0
20260904225544 67 304 3.5 7.0 0.00 0.06 0.01 50 1015.0
20260904225047 67 324 0.9 6.1 0.00 0.06 0.01 49 1015.0
20260904224557 67 313 1.7 6.1 0.00 0.06 0.01 48 1015.1
20260904224044 67 308 2.6 5.2 0.00 0.06 0.01 48 1015.1
20260904223544 67 320 1.7 7.8 0.00 0.06 0.01 49 1015.1
20260904223052 67 321 3.5 7.8 0.00 0.06 0.01 47 1015.2
20260904222543 67 312 2.6 7.8 0.00 0.06 0.01 45 1015.2
20260904222046 68 301 3.5 7.0 0.00 0.06 0.01 44 1015.2
20260904221604 68 309 3.5 7.0 0.00 0.06 0.01 42 1015.2
20260904221044 68 315 1.7 7.0 0.00 0.06 0.01 43 1015.3
20260904220544 68 224 0.9 7.0 0.00 0.06 0.01 41 1015.3
20260904215543 69 316 0.9 6.1 0.00 0.06 0.01 41 1015.3
20260904215043 69 313 1.7 6.1 0.00 0.06 0.01 39 1015.3
20260904214549 69 308 0.9 3.5 0.00 0.06 0.01 38 1015.3
20260904214047 69 224 0.0 7.8 0.00 0.06 0.01 42 1015.4
20260904213545 68 272 1.7 7.8 0.00 0.06 0.01 44 1015.3
20260904213051 68 303 1.7 4.3 0.00 0.06 0.01 40 1015.4
20260904212547 68 315 1.7 4.3 0.00 0.06 0.01 45 1015.3
20260904212043 68 47 0.0 2.6 0.00 0.06 0.01 47 1015.4
20260904211608 67 0 0.9 7.0 0.00 0.06 0.01 47 1015.3
20260904211046 67 308 0.9 7.0 0.00 0.06 0.01 46 1015.4
20260904210544 67 308 3.5 7.0 0.00 0.06 0.01 44 1015.3
20260904210056 67 322 0.9 5.2 0.00 0.06 0.01 46 1015.3
20260904205546 67 323 1.7 6.1 0.00 0.06 0.01 48 1015.3
20260904205044 67 327 1.7 6.1 0.00 0.06 0.01 49 1015.3
20260904204558 67 0 0.0 3.5 0.00 0.06 0.01 49 1015.3
20260904204045 66 342 1.7 7.0 0.00 0.06 0.01 47 1015.3
20260904203548 66 325 2.6 7.0 0.00 0.06 0.01 48 1015.3
20260904203114 65 306 1.7 7.0 0.00 0.06 0.01 54 1015.3
20260904202541 65 315 1.7 6.1 0.00 0.06 0.01 52 1015.2
20260904202044 66 294 0.9 4.3 0.00 0.06 0.01 54 1015.2
20260904201600 66 298 1.7 3.5 0.00 0.06 0.01 56 1015.1
20260904201044 65 329 1.7 3.5 0.00 0.06 0.01 59 1015.1
20260904200543 65 319 0.9 4.3 0.00 0.06 0.01 57 1015.1
20260904200120 65 310 1.7 4.3 0.00 0.06 0.01 58 1015.2
20260904195545 64 310 1.7 7.8 0.00 0.06 0.01 58 1015.1
20260904195045 64 285 1.7 7.8 0.00 0.06 0.01 59 1015.2
20260904194606 65 311 3.5 7.8 0.00 0.06 0.01 58 1015.2
20260904194044 64 325 0.9 6.1 0.00 0.06 0.01 60 1015.2
20260904193546 64 310 3.5 6.1 0.00 0.06 0.01 58 1015.3
20260904193101 64 209 1.7 7.8 0.00 0.06 0.01 61 1015.3
20260904192543 65 312 2.6 7.8 0.00 0.06 0.01 59 1015.3
20260904192043 64 289 0.9 3.5 0.00 0.06 0.01 61 1015.4
20260904191600 64 239 0.9 3.5 0.00 0.06 0.01 62 1015.5
20260904191043 63 0 0.9 3.5 0.00 0.06 0.01 62 1015.6
20260904190546 63 331 0.9 2.6 0.00 0.06 0.01 63 1015.6
20260904190058 63 0 0.9 3.5 0.00 0.06 0.01 62 1015.5
20260904185546 62 331 0.9 3.5 0.00 0.06 0.01 62 1015.7
20260904185044 62 334 0.9 4.3 0.00 0.06 0.01 63 1015.7
20260904184554 61 0 1.7 4.3 0.00 0.06 0.01 63 1015.8
20260904184044 61 315 1.7 4.3 0.00 0.06 0.01 61 1015.8
20260904183544 61 314 0.9 4.3 0.00 0.06 0.01 63 1015.7
20260904183101 61 315 1.7 4.3 0.00 0.06 0.01 65 1015.7
20260904182544 61 332 1.7 4.3 0.00 0.06 0.01 67 1015.7
20260904182043 61 329 1.7 3.5 0.00 0.06 0.01 66 1015.7
20260904181557 60 323 1.7 3.5 0.00 0.06 0.01 69 1015.7
20260904181043 60 321 0.9 3.5 0.00 0.06 0.01 68 1015.7
20260904180546 60 294 0.9 2.6 0.00 0.06 0.01 69 1015.7
20260904180107 60 254 0.9 4.3 0.00 0.06 0.01 71 1015.7
20260904175543 60 238 1.7 4.3 0.00 0.06 0.01 70 1015.7
20260904175044 60 0 0.0 0.0 0.00 0.06 0.01 71 1015.6
20260904174607 59 0 0.0 0.9 0.00 0.06 0.01 70 1015.8
20260904174043 59 0 0.0 0.9 0.00 0.06 0.01 70 1015.7
20260904173545 59 0 0.0 0.9 0.00 0.06 0.01 70 1015.7
20260904173102 58 0 0.0 0.9 0.00 0.06 0.01 71 1015.6
20260904172545 58 0 0.0 0.0 0.00 0.06 0.01 72 1015.5
20260904172043 58 0 0.0 0.0 0.00 0.06 0.01 74 1015.4
20260904171603 58 0 0.0 1.7 0.00 0.06 0.01 75 1015.4
20260904171043 57 0 0.0 2.6 0.00 0.06 0.01 73 1015.4
20260904170543 57 311 0.9 2.6 0.00 0.06 0.01 73 1015.4
20260904170059 57 325 0.9 2.6 0.00 0.06 0.01 77 1015.4
20260904165543 57 325 0.0 2.6 0.00 0.06 0.01 78 1015.4
20260904165044 57 325 0.0 2.6 0.00 0.06 0.01 79 1015.2
20260904164556 57 325 0.0 2.6 0.00 0.06 0.01 78 1015.2
20260904164044 57 325 0.9 3.5 0.00 0.06 0.01 78 1015.1
20260904163544 57 325 0.9 3.5 0.00 0.06 0.01 79 1015.0
20260904163101 57 325 1.7 3.5 0.00 0.06 0.01 79 1015.0
20260904162544 57 325 0.9 3.5 0.00 0.06 0.01 78 1014.9
20260904162044 57 325 0.9 3.5 0.00 0.06 0.01 78 1014.9
20260904161617 57 325 1.7 3.5 0.00 0.06 0.01 76 1014.8
20260904161043 57 325 1.7 3.5 0.00 0.06 0.01 76 1014.7
20260904160544 57 325 1.7 3.5 0.00 0.06 0.01 71 1014.6
20260904160107 57 325 1.7 3.5 0.00 0.06 0.01 71 1014.5
20260904155544 57 325 0.9 3.5 0.00 0.06 0.01 69 1014.5
20260904155043 57 325 1.7 4.3 0.00 0.06 0.01 68 1014.4
20260904154605 56 325 1.7 4.3 0.00 0.06 0.01 68 1014.4
20260904154043 56 325 1.7 3.5 0.00 0.06 0.01 68 1014.4
20260904153543 56 328 1.7 4.3 0.00 0.06 0.01 69 1014.5
20260904153133 56 328 1.7 4.3 0.00 0.06 0.01 67 1014.4
20260904152543 56 321 1.7 3.5 0.00 0.06 0.01 68 1014.3
20260904152045 56 321 1.7 3.5 0.00 0.06 0.01 69 1014.2
20260904151557 56 321 1.7 4.3 0.00 0.06 0.01 68 1014.3
20260904151047 56 321 1.7 4.3 0.00 0.06 0.01 68 1014.3
20260904150543 56 321 1.7 4.3 0.00 0.06 0.01 69 1014.2
20260904150053 56 321 1.7 4.3 0.00 0.06 0.01 70 1014.1
20260904145547 56 321 1.7 3.5 0.00 0.06 0.01 70 1014.0
20260904145044 56 321 1.7 3.5 0.00 0.06 0.01 70 1014.0
20260904144603 56 321 1.7 3.5 0.00 0.06 0.01 70 1014.0
20260904144044 55 321 1.7 3.5 0.00 0.06 0.01 70 1014.0
20260904143544 55 321 1.7 3.5 0.00 0.06 0.01 73 1014.0
20260904143100 55 321 2.6 4.3 0.00 0.06 0.01 74 1013.9
20260904142546 55 313 2.6 4.3 0.00 0.06 0.01 74 1013.9
20260904142045 55 310 2.6 3.5 0.00 0.06 0.01 73 1013.8
20260904141557 55 311 1.7 3.5 0.00 0.06 0.01 73 1013.7
20260904141043 55 311 2.6 3.5 0.00 0.06 0.01 73 1013.7
20260904140544 55 316 2.6 3.5 0.00 0.06 0.01 73 1013.5
20260904140055 55 317 2.6 3.5 0.00 0.06 0.01 74 1013.6
20260904135544 55 317 1.7 2.6 0.00 0.06 0.01 74 1013.5
20260904135042 55 317 1.7 2.6 0.00 0.06 0.01 75 1013.5
20260904134553 55 317 1.7 3.5 0.00 0.06 0.01 74 1013.6
20260904134043 55 317 1.7 3.5 0.00 0.06 0.01 75 1013.5
20260904133543 54 317 1.7 3.5 0.00 0.06 0.01 75 1013.6
20260904133100 54 317 1.7 3.5 0.00 0.06 0.01 77 1013.5
20260904132544 54 317 2.6 4.3 0.00 0.06 0.01 79 1013.5
20260904132043 54 317 2.6 4.3 0.00 0.06 0.01 79 1013.5
20260904131619 54 317 2.6 5.2 0.00 0.06 0.01 80 1013.4
20260904131043 54 311 3.5 5.2 0.00 0.06 0.01 81 1013.4
20260904130543 53 306 3.5 4.3 0.00 0.06 0.01 82 1013.4
20260904130052 53 312 2.6 5.2 0.00 0.06 0.01 84 1013.3
20260904125543 52 313 2.6 6.1 0.01 0.06 0.01 87 1013.3
20260904125044 52 313 3.5 6.1 0.01 0.06 0.01 89 1013.3
20260904124555 52 321 3.5 6.1 0.01 0.06 0.01 91 1013.3
20260904124046 52 305 3.5 7.0 0.01 0.06 0.01 92 1013.3
20260904123543 52 319 3.5 7.8 0.01 0.06 0.01 93 1013.3
20260904123100 52 317 4.3 8.7 0.01 0.06 0.01 93 1013.4
20260904122543 52 312 5.2 8.7 0.01 0.06 0.01 94 1013.3
20260904122046 52 316 5.2 8.7 0.01 0.06 0.01 94 1013.4
20260904121600 52 317 5.2 7.8 0.01 0.06 0.01 94 1013.4
20260904121043 53 311 4.3 7.8 0.01 0.06 0.01 95 1013.3
20260904120543 53 317 3.5 7.0 0.01 0.06 0.01 95 1013.4
20260904115543 53 315 4.3 6.1 0.00 0.05 0.00 95 1013.4
20260904115043 53 318 3.5 6.1 0.00 0.05 0.00 95 1013.4
20260904114557 53 300 3.5 6.1 0.00 0.05 0.00 95 1013.4
20260904114043 53 313 3.5 6.1 0.00 0.05 0.00 95 1013.3
20260904113544 53 312 3.5 7.0 0.00 0.05 0.00 95 1013.1
20260904113057 53 313 3.5 7.0 0.00 0.05 0.00 95 1013.2
20260904112543 53 313 3.5 6.1 0.00 0.05 0.00 95 1013.1
20260904112045 53 311 3.5 6.1 0.00 0.05 0.00 95 1013.2
20260904111606 53 317 3.5 6.1 0.00 0.05 0.00 95 1013.2
20260904111046 53 315 3.5 6.1 0.00 0.05 0.00 95 1013.2
20260904110545 53 300 2.6 6.1 0.00 0.05 0.00 95 1013.2
20260904110104 53 312 2.6 5.2 0.00 0.05 0.00 95 1013.2
20260904105545 53 313 2.6 6.1 0.00 0.05 0.00 95 1013.3
20260904105046 53 313 3.5 6.1 0.00 0.05 0.00 95 1013.3
20260904104604 53 313 3.5 6.1 0.00 0.05 0.00 95 1013.2
20260904104051 53 315 2.6 7.0 0.00 0.05 0.00 95 1013.1
20260904103542 53 318 2.6 7.0 0.00 0.05 0.00 95 1013.1
20260904103105 54 306 3.5 6.1 0.00 0.05 0.00 95 1013.1
20260904102544 54 317 2.6 7.0 0.00 0.05 0.00 95 1013.0
20260904102045 54 319 3.5 7.8 0.00 0.05 0.00 95 1013.1
20260904101600 54 312 3.5 8.7 0.00 0.05 0.00 95 1013.0
20260904101043 54 331 2.6 8.7 0.00 0.05 0.00 95 1012.9
20260904100543 54 312 5.2 8.7 0.00 0.05 0.00 95 1013.0
20260904100218 54 316 4.3 7.8 0.00 0.05 0.00 95 1012.9
20260904095544 54 317 3.5 7.0 0.00 0.05 0.00 95 1012.9
20260904095044 54 313 3.5 6.1 0.00 0.05 0.00 95 1012.9
20260904094557 54 326 2.6 5.2 0.00 0.05 0.00 95 1012.9
20260904094043 54 317 1.7 7.0 0.00 0.05 0.00 95 1012.9
20260904093543 54 312 3.5 7.0 0.00 0.05 0.00 95 1012.8
20260904093104 54 321 2.6 5.2 0.00 0.05 0.00 95 1012.8
20260904092545 54 309 2.6 6.1 0.00 0.05 0.00 95 1012.8
20260904092048 54 320 2.6 7.0 0.00 0.05 0.00 95 1012.8
20260904091609 54 305 2.6 7.0 0.00 0.05 0.00 95 1012.8
20260904091045 54 321 3.5 7.0 0.00 0.05 0.00 95 1012.9
20260904090545 54 325 1.7 6.1 0.00 0.05 0.00 95 1012.8
20260904090057 54 296 3.5 7.0 0.00 0.05 0.00 95 1012.9
20260904085543 54 290 3.5 7.0 0.00 0.05 0.00 95 1012.9
20260904085046 54 321 3.5 7.0 0.00 0.05 0.00 95 1012.9
20260904084555 54 310 3.5 6.1 0.00 0.05 0.00 94 1012.9
20260904084042 54 312 3.5 6.1 0.00 0.05 0.00 95 1012.9
20260904083544 54 313 2.6 4.3 0.00 0.05 0.00 95 1012.9
20260904083111 54 314 1.7 4.3 0.00 0.05 0.00 95 1012.9
20260904082546 54 314 1.7 4.3 0.00 0.05 0.00 95 1012.9
20260904082048 54 314 2.6 4.3 0.00 0.05 0.00 95 1012.9
20260904081559 54 314 2.6 4.3 0.00 0.05 0.00 95 1012.8
20260904081043 54 315 0.0 1.7 0.00 0.05 0.00 95 1012.9
20260904080546 54 0 0.0 1.7 0.00 0.05 0.00 95 1012.9
20260904080053 54 0 0.0 2.6 0.00 0.05 0.00 95 1013.0
20260904075544 54 314 0.9 4.3 0.00 0.05 0.00 95 1013.1
20260904075048 54 315 0.9 7.0 0.00 0.05 0.00 95 1013.1
20260904074611 54 330 2.6 7.8 0.00 0.05 0.00 95 1013.0
20260904074044 54 310 3.5 8.7 0.00 0.05 0.00 94 1013.1
20260904073544 54 336 3.5 8.7 0.01 0.05 0.00 95 1013.1
20260904073102 54 315 4.3 8.7 0.01 0.05 0.00 94 1013.0
20260904072547 54 319 4.3 8.7 0.02 0.05 0.00 94 1013.1
20260904072043 54 283 4.3 10.4 0.03 0.05 0.00 94 1013.0
20260904071559 54 321 6.1 10.4 0.03 0.05 0.00 94 1013.0
20260904071043 54 307 5.2 9.6 0.03 0.05 0.00 94 1012.9
20260904070546 55 305 6.1 10.4 0.04 0.05 0.00 94 1013.0
20260904070126 55 311 6.1 10.4 0.04 0.05 0.00 94 1012.9
20260904065543 55 300 7.0 12.2 0.04 0.05 0.05 93 1012.9
20260904065046 56 310 7.0 12.2 0.04 0.05 0.05 93 1012.9
20260904064553 56 306 6.1 10.4 0.04 0.05 0.05 94 1012.8
20260904064043 57 296 5.2 10.4 0.04 0.05 0.05 93 1012.8
20260904063544 58 315 3.5 6.1 0.03 0.04 0.04 94 1012.9
20260904063105 58 311 1.7 4.3 0.03 0.04 0.04 94 1012.9
20260904062543 58 0 0.0 0.0 0.02 0.03 0.03 94 1013.0
20260904062043 58 0 0.0 4.3 0.01 0.02 0.02 94 1013.0
20260904061558 58 0 0.0 4.3 0.01 0.02 0.02 94 1012.9
20260904061044 58 158 0.9 5.2 0.01 0.02 0.02 94 1012.9
20260904060544 58 153 2.6 5.2 0.01 0.01 0.01 94 1012.9
20260904060100 58 149 2.6 5.2 0.01 0.01 0.01 94 1012.9
20260904055544 58 149 2.6 5.2 0.01 0.01 0.01 93 1012.9
20260904055045 58 149 2.6 5.2 0.01 0.01 0.01 93 1012.9
20260904054554 58 149 1.7 4.3 0.01 0.01 0.01 93 1012.9
20260904054044 58 149 1.7 4.3 0.01 0.01 0.01 93 1013.1
20260904053544 58 153 1.7 3.5 0.01 0.01 0.01 93 1013.1
20260904053101 58 153 0.9 2.6 0.01 0.01 0.01 93 1013.2
20260904052544 58 154 0.9 3.5 0.01 0.01 0.01 93 1013.3
20260904052044 58 154 0.9 3.5 0.01 0.01 0.01 93 1013.3
20260904051607 58 169 1.7 3.5 0.01 0.01 0.01 93 1013.2
20260904051043 59 130 0.9 3.5 0.01 0.01 0.01 92 1013.3
20260904050544 59 0 0.0 4.3 0.00 0.00 0.00 92 1013.4
20260904050057 59 0 0.0 4.3 0.00 0.00 0.00 92 1013.5
20260904045545 59 143 0.9 3.5 0.00 0.00 0.00 92 1013.5
20260904045045 59 137 0.9 4.3 0.00 0.00 0.00 92 1013.6
20260904044604 59 138 1.7 4.3 0.00 0.00 0.00 91 1013.6
20260904044043 59 121 1.7 4.3 0.00 0.00 0.00 91 1013.5
20260904043551 59 122 0.9 2.6 0.00 0.00 0.00 91 1013.5
20260904043102 59 129 0.0 1.7 0.00 0.00 0.00 91 1013.6
20260904042548 59 153 0.0 1.7 0.00 0.00 0.00 91 1013.6
20260904042044 59 0 0.0 1.7 0.00 0.00 0.00 91 1013.6
20260904041607 59 0 0.0 1.7 0.00 0.00 0.00 91 1013.5
20260904041044 59 0 0.0 1.7 0.00 0.00 0.00 90 1013.5
20260904040543 59 0 0.0 1.7 0.00 0.00 0.00 90 1013.4
20260904040110 59 0 0.0 2.6 0.00 0.00 0.00 90 1013.4
20260904035543 59 0 0.0 2.6 0.00 0.00 0.00 90 1013.3
20260904035044 59 136 0.0 2.6 0.00 0.00 0.00 90 1013.3
20260904034613 60 0 0.0 0.9 0.00 0.00 0.00 90 1013.4
20260904034045 60 0 0.0 0.9 0.00 0.00 0.00 89 1013.3
20260904033544 60 0 0.0 0.9 0.00 0.00 0.00 89 1013.3
20260904033104 60 0 0.0 0.9 0.00 0.00 0.00 89 1013.4
20260904032543 60 0 0.0 0.9 0.00 0.00 0.00 89 1013.3